Weather History for Taunton, MA

Change the Weather History Date:

Saturday, October 15, 2011

  Actual Average Record
Temperature  
Mean Temperature 60 °F -  
Max Temperature 66 °F 65 °F 82 °F (1956)
Min Temperature 55 °F 40 °F 26 °F (1972)
Degree Days  
Heating Degree Days 6    
Growing Degree Days 10 (Base 50)    
Moisture  
Dew Point 46 °F    
Average Humidity 64    
Maximum Humidity 88    
Minimum Humidity 39    
Precipitation  
Precipitation 0.00 in - - ()
Sea Level Pressure  
Sea Level Pressure 29.55 in    
Wind  
Wind Speed 11 mph (SW)    
Max Wind Speed 17 mph    
Max Gust Speed 28 mph    
Visibility 10 miles    
Events      
Averages and records for this station are not official NWS values.
T = Trace of Precipitation, MM = Missing Value Source: NWS Daily Summary

Daily Weather History Graph

Daily Weather History Graph

Search for Another Location

Airport:

Trip Planner

Search our weather history database for the weather conditions in past years. The results will help you decide how hot, cold, wet, or windy it might be!

Date:

Astronomy

Oct. 15, 2011 Rise Set
Actual Time 6:56 AM EDT 6:03 PM EDT
Civil Twilight 6:27 AM EDT 6:31 PM EDT
Nautical Twilight 5:55 AM EDT 7:03 PM EDT
Astronomical Twilight 5:23 AM EDT 7:35 PM EDT
Moon 7:53 PM EDT (10/15) 10:21 AM EDT (10/15)
Length of Visible Light 12h 03m
Length of Day
11h 06m
Waning Gibbous, 89% of the Moon is Illuminated
Oct 15
Waning Gibbous
Oct 19
Last Quarter
Oct 26
New
Nov 2
First Quarter
Nov 10
Full

Hourly Weather History & Observations

Time (EDT) Temp. Dew Point Humidity Pressure Visibility Wind Dir Wind Speed Gust Speed Precip Events Conditions
12:42 AM 60.8 °F 57.2 °F 88% 29.39 in 10.0 mi SW 8.1 mph 19.6 mph N/A   Mostly Cloudy
1:05 AM 60.8 °F 57.2 °F 88% 29.40 in 10.0 mi SW 11.5 mph 19.6 mph N/A   Partly Cloudy
1:34 AM 59.0 °F 55.4 °F 88% 29.43 in 10.0 mi SW 10.4 mph 24.2 mph N/A   Mostly Cloudy
1:52 AM 57.9 °F 54.0 °F 87% 29.44 in 10.0 mi SW 11.5 mph 17.3 mph N/A   Mostly Cloudy
2:03 AM 57.2 °F 53.6 °F 88% 29.44 in 10.0 mi SW 9.2 mph 20.7 mph N/A   Scattered Clouds
2:52 AM 57.9 °F 52.0 °F 81% 29.46 in 10.0 mi SW 11.5 mph 18.4 mph N/A   Clear
3:52 AM 57.0 °F 48.0 °F 72% 29.47 in 10.0 mi WSW 16.1 mph 24.2 mph N/A   Clear
4:52 AM 55.9 °F 46.0 °F 69% 29.51 in 10.0 mi SW 10.4 mph 23.0 mph N/A   Clear
5:52 AM 55.9 °F 45.0 °F 67% 29.54 in 10.0 mi SW 11.5 mph 18.4 mph N/A   Clear
7:52 AM 57.0 °F 45.0 °F 64% 29.59 in 10.0 mi SW 11.5 mph 18.4 mph N/A   Clear
8:52 AM 59.0 °F 44.1 °F 58% 29.61 in 10.0 mi SW 12.7 mph 21.9 mph N/A   Clear
9:52 AM 62.1 °F 46.0 °F 56% 29.61 in 10.0 mi SW 10.4 mph 19.6 mph N/A   Clear
10:52 AM 64.0 °F 45.0 °F 50% 29.60 in 10.0 mi SW 12.7 mph 23.0 mph N/A   Scattered Clouds
2:52 PM 64.9 °F 41.0 °F 42% 29.56 in 10.0 mi SW 17.3 mph 27.6 mph N/A   Scattered Clouds
3:52 PM 64.9 °F 39.0 °F 39% 29.57 in 10.0 mi SW 13.8 mph 25.3 mph N/A   Partly Cloudy
4:52 PM 63.0 °F 41.0 °F 45% 29.57 in 10.0 mi SSW 12.7 mph 23.0 mph N/A   Scattered Clouds
5:52 PM 61.0 °F 43.0 °F 52% 29.59 in 10.0 mi SW 8.1 mph - N/A   Clear
6:52 PM 60.1 °F 42.1 °F 51% 29.62 in 10.0 mi WSW 12.7 mph 21.9 mph 0.00 in   Mostly Cloudy
8:52 PM 57.0 °F 44.1 °F 62% 29.66 in 10.0 mi SW 5.8 mph - N/A   Clear
9:52 PM 55.9 °F 43.0 °F 62% 29.67 in 10.0 mi WSW 5.8 mph - N/A   Clear
10:52 PM 55.9 °F 41.0 °F 57% 29.69 in 10.0 mi WSW 9.2 mph - N/A   Clear
11:52 PM 57.9 °F 36.0 °F 44% 29.68 in 10.0 mi WSW 11.5 mph 24.2 mph N/A   Clear